Weather in Novoannenkovskij

Russia / Ulyanovsk Oblast     54°06′04″N   47°27′00″E
temp.,
°C
wind,
m/s
gust,
m/s
humid.,
%
clouds,
%
prec.,
mm/h
press.,
hPa
HPBL,
m
17 may, mon
mon1701:00+19sse115512 0.0 101611
04:00+17sse225857 0.0 101612
07:00+19sse246044 0.0 1017125
10:00+25s354475 0.0 1017415
13:00+29sw463337 0.0 10171349
16:00+30wsw232998 0.0 10163059
19:00+22nne5115599 0.2 1017188
22:00+19n485397 0.3 1017120
18 may, tue
tue1801:00+18ese225470 0.0 101715
04:00+17ese22575 0.0 101711
07:00+19ese24575 0.0 1017112
10:00+25se45385 0.0 1017412
13:00+29se56272 0.0 10171569
16:00+29se55280 0.0 10162113
19:00+25e47470 0.0 1016122
22:00+19e48502 0.0 1016101
19 may, wed
wed1901:00+18e37682 0.0 101694
04:00+16e37585 0.0 101694
07:00+18e49755 0.0 1016236
10:00+24ese68560 0.0 1016664
13:00+27ese68432 0.0 10151629
16:00+27ese78423 0.0 10152012
19:00+24e611541 0.0 1014434
22:00+20ese3115977 0.0 1015293
20 may, thu
thu2001:00+19se615580 0.0 1015483
04:00+17se716610 0.0 1016506
07:00+17se614650 0.0 1016479
10:00+21se811530 0.0 1017813
13:00+24se810440 0.0 10171338
16:00+25se79390 0.0 10171668
19:00+22se510480 0.0 1017396
22:00+16se39620 0.0 1017156
21 may, fri
fri2101:00+15sse3563100 0.0 101891
04:00+14s34676 0.0 101856
07:00+16sw237691 0.0 1019134
10:00+19wsw346785 0.0 1020579
13:00+21sw345999 0.0 1020707
16:00+23wsw4454100 0.0 10201271
19:00+21sw226486 0.0 102030
22:00+17nnw227372 0.0 102125